Hermosillo, Mexico

8:28 AM MST on December 15, 2017 (GMT -0700)
Gen Ignacio Pesqueira Garcia

Weather History for MMHO - October, 2013

Change the Weather History Date:

Tuesday, October 8, 2013

  Actual Average Record
Temperature  
Mean Temperature 82 °F -  
Max Temperature 97 °F 88 °F 104 °F (1996)
Min Temperature 67 °F 61 °F 57 °F (2011)
Cooling Degree Days 17    
Growing Degree Days 32 (Base 50)    
Moisture  
Dew Point 47 °F    
Average Humidity 33    
Maximum Humidity 64    
Minimum Humidity 12    
Precipitation  
Precipitation 0.00 in - - ()
Sea Level Pressure  
Sea Level Pressure 29.85 in    
Wind  
Wind Speed 2 mph ()    
Max Wind Speed 12 mph    
Max Gust Speed -    
Visibility 10.3 miles    
Events      
Averages and records for this station are not official NWS values.
T = Trace of Precipitation, MM = Missing Value Source: Averaged Metar Reports

Daily Weather History Graph

Daily Weather History Graph

Search for Another Location

Airport or City:

Trip Planner

Search our weather history database for the weather conditions in past years. The results will help you decide how hot, cold, wet, or windy it might be!

Date:

Astronomy

Oct. 08, 2013 Rise Set
Actual Time 7:21 AM MDT 7:01 PM MDT
Civil Twilight 6:57 AM MDT 7:25 PM MDT
Nautical Twilight 6:30 AM MDT 7:52 PM MDT
Astronomical Twilight 6:02 AM MDT 8:20 PM MDT
Moon 11:02 AM MDT (10/8) 9:58 PM MDT (10/8)
Length of Visible Light 12h 27m
Length of Day
11h 39m
Waxing Crescent, 16% of the Moon is Illuminated
Oct 8
Waxing Crescent
Oct 11
First Quarter
Oct 18
Full
Oct 26
Last Quarter
Nov 3
New

Hourly Weather History & Observations

Time (MDT) Temp. Dew Point Humidity Pressure Visibility Wind Dir Wind Speed Gust Speed Precip Events Conditions
12:40 AM 73.4 °F 51.8 °F 47% 29.90 in 10.0 mi Calm Calm - N/A   Scattered Clouds
1:40 AM 73.4 °F 55.4 °F 53% 29.90 in 10.0 mi Calm Calm - N/A   Scattered Clouds
2:40 AM 76 °F 53 °F 34% 29.86 in 5 mi NE 2.2 mph - -  
2:43 AM 71.6 °F 55.4 °F 57% 29.83 in 10.0 mi Calm Calm - N/A   Scattered Clouds
3:41 AM 71.6 °F 51.8 °F 50% 29.88 in 10.0 mi Calm Calm - N/A   Scattered Clouds
4:41 AM 71.6 °F 53.6 °F 53% 29.87 in 10.0 mi Calm Calm - N/A   Scattered Clouds
5:40 AM 71.6 °F 53.6 °F 53% 29.83 in 10.0 mi Calm Calm - N/A   Scattered Clouds
6:43 AM 66.2 °F 53.6 °F 64% 29.89 in 10.0 mi Calm Calm - N/A   Partly Cloudy
7:47 AM 66.2 °F 53.6 °F 64% 29.90 in 10.0 mi Calm Calm - N/A   Partly Cloudy
8:40 AM 68 °F 50 °F 42% 29.89 in 7 mi East 2.2 mph - -   Clear
8:46 AM 77.0 °F 48.2 °F 36% 29.88 in 10.0 mi East 5.8 mph - N/A   Partly Cloudy
10:47 AM 87.8 °F 48.2 °F 25% 29.92 in 10.0 mi East 5.8 mph - N/A   Clear
11:43 AM 89.6 °F 44.6 °F 21% 29.87 in 10.0 mi SSE 4.6 mph - N/A   Clear
11:45 AM 88 °F 54 °F 21% 29.88 in 7 mi East 2.2 mph - -  
12:40 PM 91.4 °F 44.6 °F 20% 29.90 in 10.0 mi SW 6.9 mph - N/A   Clear
1:40 PM 95.0 °F 41.0 °F 15% 29.87 in 10.0 mi Calm Calm - N/A   Clear
2:42 PM 95.0 °F 37.4 °F 13% 29.80 in 10.0 mi WSW 10.4 mph - N/A   Clear
3:52 PM 96.8 °F 35.6 °F 12% 29.83 in 15.0 mi SW 6.9 mph - N/A   Clear
4:46 PM 95.0 °F 35.6 °F 12% 29.82 in 15.0 mi WSW 11.5 mph - N/A   Scattered Clouds
5:30 PM 95 °F 53 °F 15% 29.79 in 7 mi SE 2.2 mph - -   Clear
5:44 PM 95.0 °F 35.6 °F 12% 29.81 in 15.0 mi WSW 9.2 mph - N/A   Scattered Clouds
6:45 PM 89.6 °F 39.2 °F 17% 29.82 in 15.0 mi WSW 5.8 mph - N/A   Scattered Clouds
7:43 PM 82.4 °F 41.0 °F 23% 29.82 in 12.0 mi WSW 3.5 mph - N/A   Scattered Clouds
8:45 PM 82.4 °F 41.0 °F 23% 29.82 in 10.0 mi South 3.5 mph - N/A   Scattered Clouds
9:45 PM 78.8 °F 42.8 °F 28% 29.84 in 10.0 mi Calm Calm - N/A   Mostly Cloudy
10:47 PM 71.6 °F 46.4 °F 41% 29.84 in 10.0 mi Calm Calm - N/A   Scattered Clouds
11:42 PM 71.6 °F 46.4 °F 41% 29.82 in 10.0 mi Calm Calm - N/A   Scattered Clouds